Weather History for Fort Myers Airport, FL

Change the Weather History Date:

Wednesday, December 19, 2012

  Actual Average Record
Temperature  
Mean Temperature 67 °F -  
Max Temperature 79 °F 75 °F 85 °F (1931)
Min Temperature 55 °F 52 °F 35 °F (1988)
Cooling Degree Days 2    
Growing Degree Days 17 (Base 50)    
Moisture  
Dew Point 55 °F    
Average Humidity 71    
Maximum Humidity 93    
Minimum Humidity 39    
Precipitation  
Precipitation 0.01 in - - ()
Sea Level Pressure  
Sea Level Pressure 30.06 in    
Wind  
Wind Speed 2 mph (NE)    
Max Wind Speed 6 mph    
Max Gust Speed -    
Visibility 10 miles    
Events      
Averages and records for this station are not official NWS values.
T = Trace of Precipitation, MM = Missing Value Source: NWS Daily Summary

Daily Weather History Graph

Daily Weather History Graph

Search for Another Location

Airport:

Trip Planner

Search our weather history database for the weather conditions in past years. The results will help you decide how hot, cold, wet, or windy it might be!

Date:

Astronomy

Dec. 19, 2012 Rise Set
Actual Time 7:10 AM EST 5:38 PM EST
Civil Twilight 6:44 AM EST 6:04 PM EST
Nautical Twilight 6:15 AM EST 6:33 PM EST
Astronomical Twilight 5:47 AM EST 7:01 PM EST
Moon 11:54 AM EST (12/19) No Moon Set
Length of Visible Light 11h 19m
Length of Day
10h 28m
Waxing Crescent, 45% of the Moon is Illuminated
Dec 19
Waxing Crescent
Dec 20
First Quarter
Dec 28
Full
Jan 4
Last Quarter
Jan 11
New

Hourly Weather History & Observations

Time (EST) Temp. Dew Point Humidity Pressure Visibility Wind Dir Wind Speed Gust Speed Precip Events Conditions
12:53 AM 63.0 °F 61.0 °F 93% 30.03 in 10.0 mi North 3.5 mph - N/A   Clear
1:53 AM 62.1 °F 60.1 °F 93% 30.03 in 9.0 mi Calm Calm - N/A   Clear
2:53 AM 61.0 °F 59.0 °F 93% 30.03 in 9.0 mi North 3.5 mph - N/A   Clear
3:53 AM 59.0 °F 57.0 °F 93% 30.03 in 10.0 mi Calm Calm - 0.01 in   Clear
4:53 AM 57.9 °F 55.0 °F 90% 30.04 in 10.0 mi Calm Calm - N/A   Clear
5:53 AM 55.9 °F 53.1 °F 90% 30.05 in 10.0 mi NNE 4.6 mph - N/A   Clear
6:53 AM 55.0 °F 53.1 °F 93% 30.06 in 10.0 mi NE 3.5 mph - N/A   Clear
7:53 AM 55.9 °F 54.0 °F 93% 30.07 in 10.0 mi NE 4.6 mph - N/A   Clear
8:53 AM 60.1 °F 54.0 °F 80% 30.10 in 10.0 mi NE 5.8 mph - N/A   Clear
9:53 AM 64.0 °F 53.1 °F 67% 30.11 in 10.0 mi ENE 3.5 mph - N/A   Clear
10:53 AM 70.0 °F 51.1 °F 51% 30.11 in 10.0 mi East 5.8 mph - N/A   Clear
11:53 AM 73.9 °F 51.1 °F 45% 30.09 in 10.0 mi East 5.8 mph - N/A   Clear
12:53 PM 77.0 °F 55.9 °F 48% 30.06 in 10.0 mi NE 3.5 mph - N/A   Clear
1:53 PM 78.1 °F 55.0 °F 45% 30.04 in 10.0 mi ENE 3.5 mph - N/A   Clear
2:53 PM 79.0 °F 53.1 °F 40% 30.03 in 10.0 mi NW 3.5 mph - N/A   Clear
3:53 PM 79.0 °F 52.0 °F 39% 30.03 in 10.0 mi Calm Calm - N/A   Clear
4:53 PM 79.0 °F 52.0 °F 39% 30.04 in 10.0 mi Calm Calm - N/A   Clear
5:53 PM 72.0 °F 55.9 °F 57% 30.04 in 10.0 mi Calm Calm - N/A   Clear
6:53 PM 69.1 °F 57.0 °F 65% 30.06 in 10.0 mi Calm Calm - N/A   Clear
7:53 PM 66.9 °F 54.0 °F 63% 30.07 in 10.0 mi Calm Calm - N/A   Clear
8:53 PM 62.1 °F 55.0 °F 78% 30.07 in 10.0 mi Calm Calm - N/A   Clear
9:53 PM 63.0 °F 55.0 °F 75% 30.07 in 10.0 mi Calm Calm - N/A   Clear
10:53 PM 60.1 °F 55.0 °F 83% 30.07 in 10.0 mi Calm Calm - N/A   Clear
11:53 PM 60.1 °F 54.0 °F 80% 30.07 in 10.0 mi ENE 3.5 mph - N/A   Clear